Spokane Fairchild, WA

6:06 PM PDT on March 27, 2017 (GMT -0700)
Fairchild Air Force Base

Weather History for KSKA - February, 2013

Change the Weather History Date:

Wednesday, February 20, 2013

  Actual Average Record
Temperature  
Mean Temperature 31 °F -  
Max Temperature 36 °F 39 °F 46 °F (1998)
Min Temperature 26 °F 24 °F 15 °F (2006)
Degree Days  
Heating Degree Days 34    
Moisture  
Dew Point 28 °F    
Average Humidity 91    
Maximum Humidity 100    
Minimum Humidity 54    
Precipitation  
Precipitation 0.00 in - - ()
Sea Level Pressure  
Sea Level Pressure 29.92 in    
Wind  
Wind Speed 4 mph (WSW)    
Max Wind Speed 8 mph    
Max Gust Speed -    
Visibility 7 miles    
Events Fog , Rain , Snow    
Averages and records for this station are not official NWS values.
T = Trace of Precipitation, MM = Missing Value Source: NWS Daily Summary

Daily Weather History Graph

Daily Weather History Graph

Search for Another Location

Airport or City:

Trip Planner

Search our weather history database for the weather conditions in past years. The results will help you decide how hot, cold, wet, or windy it might be!

Date:

Astronomy

Feb. 20, 2013 Rise Set
Actual Time 6:47 AM PST 5:22 PM PST
Civil Twilight 6:15 AM PST 5:53 PM PST
Nautical Twilight 5:39 AM PST 6:29 PM PST
Astronomical Twilight 5:04 AM PST 7:05 PM PST
Moon 12:34 PM PST (2/20) 3:23 AM PST (2/20)
Length of Visible Light 11h 37m
Length of Day
10h 35m
Waxing Gibbous, 77% of the Moon is Illuminated
Feb 20
Waxing Gibbous
Feb 25
Full
Mar 4
Last Quarter
Mar 11
New
Mar 19
First Quarter

Hourly Weather History & Observations

Time (PST) Temp. Windchill Dew Point Humidity Pressure Visibility Wind Dir Wind Speed Gust Speed Precip Events Conditions
12:09 AM 30.2 °F 25.4 °F 28.4 °F 93% 29.83 in 10.0 mi SW 4.6 mph - N/A   Overcast
12:51 AM 30.2 °F 23.4 °F 28.4 °F 93% 29.84 in 10.0 mi SSW 6.9 mph - N/A   Overcast
12:58 AM 30.0 °F 25.2 °F 28.8 °F 95% 29.84 in 10.0 mi SW 4.6 mph - 0.00 in   Overcast
1:01 AM 30.2 °F 25.4 °F 28.4 °F 93% 29.84 in 10.0 mi SW 4.6 mph - N/A   Overcast
1:11 AM 30.2 °F 24.3 °F 28.4 °F 93% 29.84 in 10.0 mi SW 5.8 mph - N/A   Overcast
1:48 AM 32.0 °F 27.5 °F 28.4 °F 87% 29.85 in 10.0 mi WSW 4.6 mph - N/A   Overcast
1:56 AM 32.0 °F 27.5 °F 28.4 °F 87% 29.85 in 10.0 mi WSW 4.6 mph - N/A   Overcast
1:58 AM 30.6 °F 25.8 °F 28.6 °F 92% 29.85 in 10.0 mi West 4.6 mph - 0.00 in   Overcast
1:59 AM 32.0 °F 27.5 °F 28.4 °F 87% 29.85 in 10.0 mi West 4.6 mph - N/A   Overcast
2:54 AM 30.2 °F 24.3 °F 28.4 °F 93% 29.85 in 10.0 mi WSW 5.8 mph - N/A   Overcast
2:55 AM 30.2 °F 24.3 °F 28.4 °F 93% 29.86 in 10.0 mi WSW 5.8 mph - N/A   Overcast
2:58 AM 29.8 °F 23.9 °F 29.1 °F 97% 29.93 in 10.0 mi SW 5.8 mph - 0.00 in   Overcast
3:13 AM 30.2 °F 24.3 °F 30.2 °F 100% 29.86 in 10.0 mi WSW 5.8 mph - N/A   Overcast
3:47 AM 30.2 °F 26.7 °F 30.2 °F 100% 29.87 in 10.0 mi West 3.5 mph - N/A   Overcast
3:54 AM 30.2 °F 25.4 °F 30.2 °F 100% 29.87 in 10.0 mi West 4.6 mph - N/A   Overcast
3:58 AM 30.2 °F 25.4 °F 29.7 °F 98% 29.94 in 10.0 mi West 4.6 mph - 0.00 in   Overcast
4:03 AM 30.2 °F 24.3 °F 30.2 °F 100% 29.87 in 10.0 mi West 5.8 mph - N/A   Overcast
4:07 AM 30.2 °F 24.3 °F 30.2 °F 100% 29.87 in 10.0 mi WSW 5.8 mph - N/A   Overcast
4:17 AM 30.2 °F 25.4 °F 30.2 °F 100% 29.87 in 10.0 mi WSW 4.6 mph - N/A   Overcast
4:22 AM 30.2 °F 26.7 °F 30.2 °F 100% 29.87 in 10.0 mi SW 3.5 mph - N/A   Overcast
4:37 AM 30.2 °F 24.3 °F 30.2 °F 100% 29.87 in 10.0 mi West 5.8 mph - N/A   Overcast
4:58 AM 29.7 °F - 29.5 °F 99% 29.94 in 10.0 mi SW 2.3 mph - 0.00 in   Overcast
5:03 AM 30.2 °F - 28.4 °F 93% 29.87 in 10.0 mi SSW 2.3 mph - N/A   Overcast
5:23 AM 28.4 °F - 28.4 °F 100% 29.88 in 8.0 mi West 2.3 mph - N/A   Overcast
5:28 AM 28.4 °F 24.6 °F 28.4 °F 100% 29.88 in 2.0 mi WNW 3.5 mph - N/A   Overcast
5:33 AM 28.4 °F 23.3 °F 28.4 °F 100% 29.88 in 0.8 mi West 4.6 mph - N/A   Mist
5:38 AM 28.4 °F 23.3 °F 28.4 °F 100% 29.88 in 0.8 mi West 4.6 mph - N/A   Mist
5:43 AM 28.4 °F 24.6 °F 28.4 °F 100% 29.88 in 0.5 mi West 3.5 mph - N/A Fog Light Freezing Fog
5:53 AM 28.4 °F 23.3 °F 28.4 °F 100% 29.88 in 0.5 mi West 4.6 mph - N/A Fog Light Freezing Fog
5:54 AM 28.4 °F 23.3 °F 28.4 °F 100% 29.88 in 0.5 mi West 4.6 mph - N/A Fog Light Freezing Fog
5:58 AM 28.4 °F 24.6 °F 28.4 °F 100% 29.96 in 0.5 mi WNW 3.5 mph - 0.00 in Fog Light Freezing Fog
6:03 AM 28.4 °F 23.3 °F 26.6 °F 93% 29.88 in 0.2 mi WNW 4.6 mph - N/A Fog Light Freezing Fog
6:08 AM 26.6 °F 22.6 °F 26.6 °F 100% 29.88 in 0.5 mi WNW 3.5 mph - N/A Fog Light Freezing Fog
6:13 AM 26.6 °F - 26.6 °F 100% 29.89 in 0.5 mi WNW 2.3 mph - N/A Fog Light Freezing Fog
6:17 AM 26.6 °F - 26.6 °F 100% 29.89 in 0.5 mi NW 1.2 mph - N/A Fog Light Freezing Fog
6:19 AM 26.6 °F - 26.6 °F 100% 29.89 in 0.8 mi NW 2.3 mph - N/A   Mist
6:24 AM 26.6 °F - 26.6 °F 100% 29.89 in 0.8 mi WNW 2.3 mph - N/A   Mist
6:29 AM 26.6 °F - 26.6 °F 100% 29.89 in 1.0 mi WNW 2.3 mph - N/A   Mist
6:34 AM 26.6 °F - 26.6 °F 100% 29.89 in 1.0 mi West 2.3 mph - N/A   Mist
6:39 AM 26.6 °F - 26.6 °F 100% 29.89 in 0.5 mi West 2.3 mph - N/A Fog Light Freezing Fog
6:44 AM 26.6 °F - 26.6 °F 100% 29.89 in 0.2 mi WNW 2.3 mph - N/A Fog Light Freezing Fog
6:49 AM 26.6 °F - 26.6 °F 100% 29.89 in 0.5 mi NW 2.3 mph - N/A Fog Light Freezing Fog
6:51 AM 26.6 °F - 26.6 °F 100% 29.89 in 0.5 mi WNW 2.3 mph - N/A Fog Light Freezing Fog
6:56 AM 26.6 °F - 26.6 °F 100% 29.89 in 0.8 mi West 2.3 mph - N/A   Mist
6:58 AM 27.5 °F - 27.3 °F 99% 29.98 in 0.8 mi West 2.3 mph - 0.00 in   Mist
7:03 AM 26.6 °F 22.6 °F 26.6 °F 100% 29.89 in 0.5 mi West 3.5 mph - N/A Fog Light Freezing Fog
7:08 AM 26.6 °F 21.2 °F 26.6 °F 100% 29.90 in 0.2 mi West 4.6 mph - N/A Fog Light Freezing Fog
7:14 AM 26.6 °F 21.2 °F 26.6 °F 100% 29.90 in 0.2 mi West 4.6 mph - N/A Fog Light Freezing Fog
7:15 AM 26.6 °F 21.2 °F 26.6 °F 100% 29.90 in 0.2 mi West 4.6 mph - N/A Fog Light Freezing Fog
7:20 AM 28.4 °F 22.2 °F 26.6 °F 93% 29.90 in 0.5 mi WSW 5.8 mph - N/A Fog Light Freezing Fog
7:22 AM 28.4 °F 22.2 °F 26.6 °F 93% 29.90 in 0.5 mi WSW 5.8 mph - N/A Fog , Rain Light Freezing Rain
7:55 AM 28.4 °F 23.3 °F 28.4 °F 100% 30.00 in 0.5 mi WSW 4.6 mph - N/A Fog Light Freezing Fog
8:41 AM 28.4 °F 23.3 °F 28.4 °F 100% 29.91 in 3.0 mi WSW 4.6 mph - N/A   Overcast
8:55 AM 28.9 °F 23.9 °F 28.8 °F 99% 30.03 in 10.0 mi West 4.6 mph - N/A   Overcast
9:34 AM 30.2 °F 26.7 °F 28.4 °F 93% 29.91 in 10.0 mi SW 3.5 mph - N/A   Overcast
9:40 AM 30.2 °F 26.7 °F 28.4 °F 93% 29.91 in 10.0 mi SSW 3.5 mph - N/A   Overcast
9:47 AM 30.2 °F - 30.2 °F 100% 29.91 in 10.0 mi Calm Calm - N/A   Overcast
9:55 AM 29.7 °F - 29.5 °F 99% 29.99 in 10.0 mi Calm Calm - N/A   Overcast
10:34 AM 30.2 °F 26.7 °F 30.2 °F 100% 29.92 in 10.0 mi SSW 3.5 mph - N/A   Overcast
10:46 AM 32.0 °F 28.7 °F 30.2 °F 93% 29.92 in 10.0 mi SSW 3.5 mph - N/A Snow Light Snow
10:55 AM 30.6 °F 27.1 °F 30.0 °F 98% 30.00 in 10.0 mi SSW 3.5 mph - N/A   Overcast
10:56 AM 32.0 °F - 30.2 °F 93% 29.92 in 10.0 mi South 2.3 mph - N/A Snow Light Snow
10:58 AM 30.2 °F 26.7 °F 30.2 °F 100% 29.92 in 10.0 mi SSW 3.5 mph - N/A Snow Light Snow
11:03 AM 30.2 °F - 30.2 °F 100% 29.92 in 10.0 mi SSW 2.3 mph - N/A Snow Light Snow
11:05 AM 32.0 °F - 30.2 °F 93% 29.92 in 10.0 mi SSW 2.3 mph - N/A   Overcast
11:07 AM 32.0 °F - 28.4 °F 87% 29.92 in 8.0 mi SSW 2.3 mph - N/A Snow Light Snow
11:17 AM 32.0 °F 28.7 °F 30.2 °F 93% 29.92 in 3.0 mi South 3.5 mph - N/A   Overcast
11:22 AM 32.0 °F - 30.2 °F 93% 29.93 in 2.5 mi South 2.3 mph - N/A Snow Light Snow
11:25 AM 32.0 °F 28.7 °F 30.2 °F 93% 29.93 in 2.5 mi South 3.5 mph - N/A   Overcast
11:30 AM 32.0 °F - 30.2 °F 93% 29.93 in 2.5 mi Variable 2.3 mph - N/A   Overcast
11:35 AM 32.0 °F 26.4 °F 30.2 °F 93% 29.93 in 4.0 mi West 5.8 mph - N/A   Overcast
11:38 AM 32.0 °F 28.7 °F 30.2 °F 93% 29.93 in 4.0 mi West 3.5 mph - N/A   Overcast
11:43 AM 32.0 °F 26.4 °F 30.2 °F 93% 29.93 in 5.0 mi WSW 5.8 mph - N/A   Overcast
11:48 AM 32.0 °F 26.4 °F 30.2 °F 93% 29.93 in 5.0 mi WSW 5.8 mph - N/A Snow Light Snow
11:53 AM 32.0 °F 27.5 °F 28.4 °F 87% 29.92 in 5.0 mi SW 4.6 mph - N/A Snow Light Snow
11:58 AM 31.6 °F 28.3 °F 29.1 °F 90% 29.99 in 8.0 mi SW 3.5 mph - 0.00 in Snow Light Snow
12:07 PM 32.0 °F 27.5 °F 28.4 °F 87% 29.92 in 10.0 mi SW 4.6 mph - N/A   Overcast
12:37 PM 32.0 °F 27.5 °F 28.4 °F 87% 29.92 in 10.0 mi SW 4.6 mph - N/A   Overcast
12:42 PM 32.0 °F 27.5 °F 28.4 °F 87% 29.92 in 10.0 mi SW 4.6 mph - N/A   Overcast
12:43 PM 32.0 °F 26.4 °F 28.4 °F 87% 29.92 in 10.0 mi SW 5.8 mph - N/A   Overcast
12:48 PM 32.0 °F 27.5 °F 28.4 °F 87% 29.92 in 10.0 mi SSW 4.6 mph - N/A   Overcast
12:58 PM 33.1 °F 30.0 °F 27.9 °F 81% 29.99 in 10.0 mi Variable 3.5 mph - 0.00 in   Overcast
1:01 PM 32.0 °F 27.5 °F 26.6 °F 80% 29.92 in 10.0 mi SW 4.6 mph - N/A   Overcast
1:21 PM 32.0 °F 25.6 °F 26.6 °F 80% 29.92 in 10.0 mi SW 6.9 mph - N/A   Overcast
1:28 PM 33.8 °F 27.7 °F 28.4 °F 81% 29.92 in 10.0 mi WSW 6.9 mph - N/A   Overcast
1:44 PM 35.6 °F 30.7 °F 28.4 °F 75% 29.91 in 10.0 mi SSW 5.8 mph - N/A   Overcast
1:58 PM 34.9 °F 30.8 °F 27.0 °F 73% 29.98 in 10.0 mi Variable 4.6 mph - 0.00 in   Overcast
2:19 PM 35.6 °F 31.7 °F 28.4 °F 75% 29.91 in 10.0 mi Variable 4.6 mph - N/A   Mostly Cloudy
2:41 PM 35.6 °F 29.9 °F 26.6 °F 70% 29.91 in 10.0 mi WSW 6.9 mph - N/A   Mostly Cloudy
2:45 PM 35.6 °F 30.7 °F 26.6 °F 70% 29.91 in 10.0 mi SW 5.8 mph - N/A   Scattered Clouds
2:58 PM 36.0 °F 29.6 °F 24.1 °F 62% 29.98 in 10.0 mi SW 8.1 mph - 0.00 in   Partly Cloudy
3:01 PM 35.6 °F 29.9 °F 24.8 °F 65% 29.91 in 10.0 mi WSW 6.9 mph - N/A   Partly Cloudy
3:58 PM 36.1 °F 29.9 °F 21.0 °F 54% 29.98 in 10.0 mi West 8.1 mph - 0.00 in   Clear
4:58 PM 33.4 °F 29.1 °F 22.3 °F 64% 29.99 in 10.0 mi West 4.6 mph - N/A   Clear
5:58 PM 30.7 °F - 22.5 °F 71% 30.01 in 10.0 mi Calm Calm - N/A   Clear
6:58 PM 30.4 °F - 20.5 °F 67% 30.02 in 10.0 mi ESE 2.3 mph - N/A   Clear
7:58 PM 26.2 °F 22.1 °F 20.1 °F 78% 30.03 in 10.0 mi SE 3.5 mph - N/A   Clear
8:17 PM 26.6 °F 22.6 °F 19.4 °F 74% 29.94 in 10.0 mi SSE 3.5 mph - N/A   Clear
8:24 PM 26.6 °F 22.6 °F 21.2 °F 80% 29.94 in 10.0 mi SSE 3.5 mph - N/A   Clear
8:34 PM 26.6 °F 22.6 °F 21.2 °F 80% 29.94 in 10.0 mi South 3.5 mph - N/A   Clear
8:44 PM 26.6 °F 22.6 °F 21.2 °F 80% 29.94 in 10.0 mi South 3.5 mph - N/A   Clear
8:58 PM 27.0 °F - 20.7 °F 77% 30.03 in 10.0 mi SSE 2.3 mph - 0.00 in   Clear
9:58 PM 27.3 °F 23.4 °F 23.0 °F 84% 30.03 in 10.0 mi SSE 3.5 mph - N/A   Clear
10:58 PM 26.8 °F 22.8 °F 23.2 °F 86% 30.02 in 10.0 mi SE 3.5 mph - N/A   Clear
11:58 PM 26.1 °F 20.5 °F 22.8 °F 88% 30.02 in 10.0 mi SE 4.6 mph - N/A   Clear